COSMOS 2251 DEB

Satellite information

Favourite Embed

Satellite Type and Status

DEBRISIN ORBIT

Key statistics

Satellite COSMOS 2251 DEB at a glance.

Uptime

11649

Days in orbit

Revolutions

≈ 14.7

Per day

Orbit

LEO

Low Earth Orbit

Inclination

74.0

Latest

Satellite identification and parameters

Extended collection of information and parameters for COSMOS 2251 DEB.

Object identification

Identified? True

Debris? True

Object name: COSMOS 2251 DEB

International designator: 1993-036BMX

Object number (NORAD): 37518

Object ID (CCSDS): 37518

Country: COMMONWEALTH OF INDEPENDENT STATES (CIS)

Current information (Y/N): Y

RCS size: SMALL

Orbital parameters

Period: 97.746 minutes

Inclination: 73.9944 deg

SMA: 7028.967 km

Apoapsis: 664.423 km

Periapsis: 637.241 km

RAAN: 111.8676 deg

Eccentricy: 0.0019336

Argument of periapsis: 9.6639 deg

Mean anomaly: 350.4901 deg

Mean motion: 14.73212918 rev/day

Mean motion (dot): 0.00031228 rev/day2

B* drag term: 0.0048059 1/REarth

Two-line elements (TLE)

Creation date: Feb. 25, 2025, 4:16 a.m.

Reference frame: TEME

Reference center: EARTH

Epoch: Sept. 25, 2024, 8:07 p.m. UTC

TLE line 0: 0 COSMOS 2251 DEB

TLE line 1: 1 37518U 93036BMX 24269.83843470 .00031228 00000-0 48059-2 0 9999

TLE line 2: 2 37518 73.9944 111.8676 0019336 9.6639 350.4901 14.73212918593239

Live tracking on map

Real-time ground track for satellite COSMOS 2251 DEB.

In-orbit conjunctions

A list of the most updated potential collisions computed for object COSMOS 2251 DEB.

Target Orbit TCA Probability of collision Miss distance Type
ELECTRON KICK STAGE R/B SSO 2024-05-26 19:38:32 0.0001808038 50.0 (m) ROCKET BODY

Associated space launch

Military communications satellite. Destroyed in a collision with Iridium 33.

COSMOS 2251 DEB was lifted into orbit during the mission ‘Kosmos-3M | Strela-2M 51’, on board a Kosmos-3M space rocket.

The launch took place on June 16, 1993, 4:17 a.m. from 132/1 (132L).

For more information about the launch, click the button.

Launch to space Kosmos-3M | Strela-2M 51
Kosmos-3M | Strela-2M 51

Agency: N/A

Status: Launch Successful

Launch date: June 16, 1993, 4:17 a.m. UTC

Rocket: Kosmos-3M

Launch pad: 132/1 (132L)

Location: Plesetsk Cosmodrome, Russian Federation

...

Latest news about this satellite

There are no fresh news available about this satellite. Check back as we update our databases every day.


Newsletter sign-up

Weekly statistics, charts and insights to help you stay on top of the space industry.